[[{"header":{"parameterUnit":"m.s-1","parameterCategory":1,"la1":30.2991,"la2":30.254,"lo1":-89.0895,"lo2":-89.0444,"dy":0.0017,"dx":0.0017,"nx":28,"ny":28,"refTime":"2024-07-23T21:00:00:Z","depth":0,"parameterNumber":2,"parameterNumberName":"U-component_of_WINDS"},"data":[0,0,0,0,0,0,0,0,0,0,0,0,0,0,0,0,0,0,0,0,0,0,0,0,0,0,0,0,0,0,0,0,0,0,0,0,0,0,0,0,0,0,0,0,0,0,0,0,0,0,0,0,0,0,0,0,0,0,-0.1164,-0.1164,0,-0.116,-0.116,-0.116,-0.1112,-0.1111,-0.1109,-0.1108,-0.1106,-0.1107,-0.1108,0,0,0,0,0,0,0,0,0,0,0,0,0,-0.1132,-0.1133,-0.1164,-0.1164,-0.1164,-0.116,-0.116,-0.116,-0.1112,-0.1111,-0.1109,-0.1108,-0.1106,-0.1107,-0.1108,0,0,0,0,0,0,0,0,0,0,0,0,0,-0.1139,-0.1134,-0.1164,-0.114,-0.1137,-0.116,-0.116,-0.116,-0.1112,-0.1111,-0.1109,-0.1107,-0.1105,-0.1107,-0.1109,-0.1155,0,0,-0.1113,-0.1114,0,0,0,0,0,0,0,0,-0.1139,-0.114,-0.1143,-0.1141,-0.1139,-0.1134,-0.1148,-0.1158,-0.1113,-0.1122,-0.1108,-0.1106,-0.1117,-0.1118,-0.1121,-0.1155,-0.1155,-0.1114,-0.1115,-0.1115,-0.1116,0,0,0,0,0,0,0,-0.1138,-0.114,-0.1163,-0.1143,-0.1141,-0.1129,-0.1128,-0.115,-0.113,-0.1121,-0.1117,-0.1118,-0.1116,-0.112,-0.1121,-0.1155,-0.1114,-0.1115,-0.1116,-0.1117,-0.1227,-0.1229,0,0,0,0,0,0,-0.1141,-0.114,-0.1163,-0.1162,-0.1134,-0.1131,-0.113,-0.1138,-0.113,-0.1126,-0.1119,-0.1115,-0.1118,-0.1119,-0.112,-0.1175,-0.1115,-0.1117,-0.1118,-0.1225,-0.1228,-0.123,0,0,0,0,0,0,-0.1141,-0.1144,-0.1163,-0.115,-0.1152,-0.1134,-0.1143,-0.1139,-0.1143,-0.1128,-0.1124,-0.1127,-0.1116,-0.1118,-0.1147,-0.1174,-0.1118,-0.1119,-0.1223,-0.1226,-0.1229,-0.1285,0,0,0,0,0,0,-0.114,-0.1144,-0.1161,-0.1151,-0.1153,-0.1189,-0.1144,-0.114,-0.1145,-0.114,-0.1134,-0.1132,-0.1115,-0.1145,-0.1148,-0.1176,-0.112,-0.1221,-0.1225,-0.1228,-0.1281,-0.1289,-0.1297,0,0,0,0,0,-0.1139,-0.1177,-0.1162,-0.1165,-0.1174,-0.1191,-0.1192,-0.1171,-0.1148,-0.1165,-0.1156,-0.1132,-0.117,-0.1148,-0.1152,-0.118,-0.1219,-0.1223,-0.1228,-0.1277,-0.1288,-0.1297,0,0,0,0,0,0,-0.1191,-0.1175,-0.1158,-0.1194,-0.1194,-0.1183,-0.1204,-0.1183,-0.1191,-0.1186,-0.1161,-0.116,-0.1193,-0.1189,-0.1164,-0.1225,-0.119,-0.1196,-0.1226,-0.1237,-0.1245,-0.1246,-0.1122,0,0,0,0,0,-0.1207,-0.1221,-0.1207,-0.124,-0.124,-0.1222,-0.1229,-0.1213,-0.1212,-0.1212,-0.1205,-0.1206,-0.1218,-0.1227,-0.1237,-0.1279,-0.1278,-0.13,-0.1308,-0.1315,-0.1321,-0.1344,-0.1354,-0.1245,-0.1245,-0.1244,0,0,-0.124,-0.1233,-0.1243,-0.125,-0.1248,-0.1265,-0.1223,-0.1242,-0.1254,-0.1215,-0.1242,-0.1237,-0.1236,-0.1272,-0.1287,-0.127,-0.1351,-0.1321,-0.1326,-0.1328,-0.135,-0.136,-0.1369,-0.1248,-0.1247,-0.1247,0,0,-0.1308,-0.1303,-0.1331,-0.133,-0.1327,-0.1314,-0.1321,-0.1312,-0.1307,-0.1333,-0.1305,-0.1319,-0.1341,-0.1342,-0.1345,-0.1413,-0.1392,-0.1417,-0.1461,-0.1483,-0.1492,-0.15,-0.1525,-0.1535,-0.1422,-0.1422,-0.1422,0,-0.1349,-0.1372,-0.1348,-0.1369,-0.1373,-0.1338,-0.1366,-0.1366,-0.1367,-0.1372,-0.1351,-0.1378,-0.1375,-0.1411,-0.1427,-0.143,-0.1438,-0.1418,-0.1492,-0.15,-0.1507,-0.1531,-0.1541,-0.1425,-0.1425,-0.1425,-0.1424,0,-0.1424,-0.144,-0.1463,-0.1464,-0.1471,-0.1495,-0.1476,-0.1485,-0.1468,-0.1458,-0.1486,-0.1481,-0.149,-0.1497,-0.1481,-0.1531,-0.152,-0.1497,-0.1462,-0.1521,-0.1543,-0.1552,-0.143,-0.1429,-0.1428,-0.1427,0,0,-0.1527,-0.1514,-0.1523,-0.1523,-0.1517,-0.153,-0.1553,-0.1561,-0.157,-0.1572,-0.1592,-0.161,-0.1588,-0.1592,-0.1576,-0.1595,-0.1652,-0.1569,-0.1569,-0.1586,-0.1708,-0.1727,-0.1738,-0.1636,-0.1638,-0.1639,-0.1708,0,-0.1594,-0.1632,-0.1611,-0.1652,-0.1668,-0.1634,-0.1654,-0.1653,-0.1644,-0.1657,-0.1646,-0.1661,-0.163,-0.1632,-0.165,-0.1641,-0.1676,-0.1635,-0.1656,-0.1657,-0.1659,-0.175,-0.177,-0.1836,-0.1717,-0.1718,-0.1719,0,-0.1677,-0.1682,-0.1725,-0.1717,-0.1722,-0.1741,-0.1747,-0.1759,-0.1757,-0.1749,-0.1753,-0.1732,-0.1755,-0.1719,-0.1751,-0.1724,-0.1731,-0.1728,-0.173,-0.1733,-0.1693,-0.1757,-0.1856,-0.1867,-0.1733,-0.1732,-0.1731,0,-0.175,-0.1767,-0.1795,-0.1797,-0.1787,-0.1801,-0.1798,-0.1794,-0.18,-0.1806,-0.181,-0.1818,-0.1823,-0.183,-0.1812,-0.1787,-0.1847,-0.1809,-0.1842,-0.1843,-0.1858,-0.1858,-0.1962,-0.186,-0.1859,-0.1859,-0.1859,0,-0.1828,-0.1857,-0.1828,-0.1846,-0.1877,-0.1852,-0.1883,-0.1876,-0.1873,-0.1889,-0.186,-0.1876,-0.1851,-0.1865,-0.185,-0.188,-0.1882,-0.1877,-0.1874,-0.1881,-0.1882,-0.1887,-0.1883,-0.1862,-0.1861,-0.1861,-0.186,0,-0.1916,-0.1897,-0.1926,-0.1914,-0.1912,-0.1936,-0.1926,-0.1942,-0.193,-0.1952,-0.1955,-0.1937,-0.1952,-0.1934,-0.1947,-0.1938,-0.1979,-0.1967,-0.1979,-0.1977,-0.2012,-0.201,-0.2124,-0.2139,-0.2025,-0.2026,-0.2027,0,-0.1968,-0.1989,-0.1979,-0.1987,-0.1986,-0.2,-0.2006,-0.1982,-0.199,-0.1989,-0.2006,-0.2018,-0.2027,-0.2052,-0.2041,-0.2051,-0.2041,-0.208,-0.2043,-0.205,-0.2044,-0.2044,-0.2047,-0.2089,-0.209,-0.2091,-0.2092,0,-0.2063,-0.2053,-0.2063,-0.207,-0.2078,-0.2082,-0.2085,-0.2093,-0.2068,-0.2079,-0.2093,-0.21,-0.2113,-0.2126,-0.2133,-0.213,-0.2108,-0.2104,-0.2112,-0.2122,-0.2129,-0.2127,-0.2003,-0.2102,-0.2101,-0.21,-0.21,-0.2099,-0.2136,-0.2153,-0.2149,-0.2161,-0.216,-0.2163,-0.2178,-0.2168,-0.2179,-0.2188,-0.2173,-0.2191,-0.2189,-0.2196,-0.2196,-0.2211,-0.2194,-0.2206,-0.2209,-0.2213,-0.222,-0.2124,-0.2212,-0.2211,-0.2211,-0.2211,-0.2211,0,-0.2231,-0.2227,-0.2238,-0.2242,-0.2251,-0.2228,-0.2229,-0.2239,-0.2256,-0.2255,-0.2264,-0.2281,-0.2293,-0.2283,-0.2293,-0.2307,-0.2297,-0.2311,-0.2311,-0.2311,-0.2233,-0.2225,-0.2319,-0.2319,-0.2319,-0.2319,-0.2318,-0.2318,-0.2282,-0.2311,-0.23,-0.2328,-0.2323,-0.2341,-0.2344,-0.2346,-0.2346,-0.2366,-0.2376,-0.2368,-0.2364,-0.2374,-0.2384,-0.2381,-0.2387,-0.2405,-0.2398,-0.2326,-0.2316,-0.2306,-0.2299,-0.2406,-0.2406,-0.2475,-0.2476,-0.2476]},{"header":{"parameterUnit":"m.s-1","parameterCategory":1,"la1":30.2991,"la2":30.254,"lo1":-89.0895,"lo2":-89.0444,"dy":0.0017,"dx":0.0017,"nx":28,"ny":28,"refTime":"2024-07-23T21:00:00:Z","depth":0,"parameterNumber":3,"parameterNumberName":"V-component_of_WINDS"},"data":[0,0,0,0,0,0,0,0,0,0,0,0,0,0,0,0,0,0,0,0,0,0,0,0,0,0,0,0,0,0,0,0,0,0,0,0,0,0,0,0,0,0,0,0,0,0,0,0,0,0,0,0,0,0,0,0,0,0,-0.8781,-0.8781,0,-0.8806,-0.8806,-0.8807,-0.8807,-0.8806,-0.8806,-0.8806,-0.8831,-0.8832,-0.8833,0,0,0,0,0,0,0,0,0,0,0,0,0,-0.8732,-0.8733,-0.8781,-0.8781,-0.8781,-0.8806,-0.8806,-0.8807,-0.8807,-0.8806,-0.8806,-0.8806,-0.8831,-0.8832,-0.8833,0,0,0,0,0,0,0,0,0,0,0,0,0,-0.8755,-0.8734,-0.8781,-0.8784,-0.8785,-0.8806,-0.8806,-0.8807,-0.8807,-0.8806,-0.8806,-0.8805,-0.8831,-0.8832,-0.8833,-0.8852,0,0,-0.8838,-0.8839,0,0,0,0,0,0,0,0,-0.8754,-0.8757,-0.8783,-0.8784,-0.8785,-0.8803,-0.8799,-0.8822,-0.8807,-0.8799,-0.8806,-0.8805,-0.8822,-0.8824,-0.883,-0.8853,-0.8854,-0.8838,-0.8839,-0.884,-0.884,0,0,0,0,0,0,0,-0.8752,-0.8756,-0.8791,-0.8784,-0.8785,-0.8785,-0.8787,-0.8803,-0.8813,-0.8799,-0.8799,-0.8802,-0.8822,-0.8829,-0.8831,-0.8855,-0.8838,-0.8839,-0.884,-0.8841,-0.8896,-0.8896,0,0,0,0,0,0,-0.875,-0.8754,-0.879,-0.8791,-0.8768,-0.8786,-0.8789,-0.8797,-0.8813,-0.8814,-0.8803,-0.8802,-0.8826,-0.8829,-0.8832,-0.8855,-0.884,-0.8841,-0.8842,-0.8895,-0.8896,-0.8896,0,0,0,0,0,0,-0.8749,-0.8753,-0.8789,-0.8773,-0.8778,-0.8787,-0.8797,-0.8798,-0.8804,-0.8815,-0.8817,-0.8807,-0.8826,-0.8829,-0.8847,-0.8856,-0.8842,-0.8843,-0.8894,-0.8895,-0.8896,-0.8902,0,0,0,0,0,0,-0.8747,-0.8753,-0.876,-0.8773,-0.8778,-0.8804,-0.8797,-0.8799,-0.8807,-0.8807,-0.882,-0.8822,-0.8826,-0.8845,-0.8849,-0.8858,-0.8844,-0.8894,-0.8895,-0.8896,-0.8901,-0.8903,-0.8905,0,0,0,0,0,-0.8746,-0.876,-0.876,-0.8765,-0.8788,-0.8805,-0.8808,-0.8812,-0.8808,-0.8815,-0.8822,-0.8821,-0.8854,-0.8847,-0.8851,-0.8861,-0.8893,-0.8894,-0.8896,-0.8901,-0.8903,-0.8905,0,0,0,0,0,0,-0.8748,-0.8762,-0.8762,-0.8781,-0.8792,-0.8805,-0.8814,-0.8815,-0.8826,-0.8826,-0.8831,-0.8834,-0.8852,-0.8858,-0.8849,-0.888,-0.8873,-0.8875,-0.8875,-0.8878,-0.888,-0.8878,-0.8845,0,0,0,0,0,-0.875,-0.8763,-0.8775,-0.8791,-0.8796,-0.8804,-0.8812,-0.8815,-0.8826,-0.883,-0.8838,-0.8849,-0.8862,-0.887,-0.8882,-0.8902,-0.8905,-0.8911,-0.8912,-0.8914,-0.8916,-0.8928,-0.8931,-0.8901,-0.8901,-0.8901,0,0,-0.8756,-0.8765,-0.8773,-0.8791,-0.88,-0.8813,-0.8808,-0.8822,-0.8832,-0.8832,-0.885,-0.8856,-0.8868,-0.8887,-0.8896,-0.8893,-0.8925,-0.8916,-0.8917,-0.8918,-0.8929,-0.8932,-0.8935,-0.8902,-0.8901,-0.8901,0,0,-0.8773,-0.8781,-0.8796,-0.8804,-0.8817,-0.8823,-0.8826,-0.8839,-0.8844,-0.8861,-0.8862,-0.8874,-0.8895,-0.8904,-0.8912,-0.8933,-0.8933,-0.8937,-0.8946,-0.8958,-0.896,-0.8962,-0.897,-0.8973,-0.8938,-0.8939,-0.8939,0,-0.8778,-0.8798,-0.8803,-0.8818,-0.8826,-0.8827,-0.8842,-0.885,-0.8866,-0.8872,-0.8868,-0.8896,-0.8904,-0.8926,-0.8931,-0.8937,-0.8941,-0.8935,-0.8959,-0.8961,-0.8964,-0.8972,-0.8975,-0.8939,-0.8939,-0.8939,-0.8939,0,-0.8805,-0.8819,-0.8829,-0.8845,-0.8854,-0.8869,-0.8876,-0.8885,-0.8887,-0.8893,-0.8911,-0.8921,-0.8936,-0.8941,-0.8943,-0.8963,-0.8961,-0.8958,-0.8952,-0.8967,-0.8974,-0.8977,-0.894,-0.8939,-0.8939,-0.8939,0,0,-0.8824,-0.8843,-0.8847,-0.8854,-0.8869,-0.888,-0.8894,-0.8909,-0.8917,-0.8928,-0.8941,-0.896,-0.8957,-0.8966,-0.8969,-0.8979,-0.8996,-0.8975,-0.8975,-0.8979,-0.902,-0.9022,-0.9026,-0.8996,-0.8996,-0.8997,-0.9019,0,-0.8843,-0.887,-0.8875,-0.8898,-0.8911,-0.8912,-0.8925,-0.8936,-0.8942,-0.8954,-0.896,-0.8974,-0.8969,-0.8974,-0.8984,-0.8992,-0.9004,-0.899,-0.9008,-0.9009,-0.9006,-0.903,-0.9032,-0.9053,-0.9022,-0.9022,-0.9023,0,-0.8869,-0.8882,-0.8907,-0.892,-0.8926,-0.8937,-0.8952,-0.8963,-0.8975,-0.8979,-0.8988,-0.899,-0.9006,-0.8998,-0.902,-0.901,-0.9018,-0.9022,-0.9023,-0.9026,-0.9017,-0.9033,-0.906,-0.9063,-0.9027,-0.9027,-0.9027,0,-0.8882,-0.8905,-0.8923,-0.8929,-0.8945,-0.8953,-0.896,-0.8972,-0.898,-0.8993,-0.8999,-0.9012,-0.902,-0.9031,-0.9037,-0.903,-0.9059,-0.9051,-0.9062,-0.9062,-0.9069,-0.9068,-0.9097,-0.9072,-0.9072,-0.9072,-0.9072,0,-0.8904,-0.8919,-0.8929,-0.894,-0.8957,-0.8963,-0.8979,-0.8986,-0.8997,-0.9009,-0.9011,-0.9022,-0.9029,-0.9042,-0.9046,-0.9064,-0.9067,-0.9071,-0.9072,-0.9071,-0.9071,-0.9077,-0.9076,-0.9073,-0.9073,-0.9073,-0.9073,0,-0.8921,-0.8928,-0.8948,-0.8961,-0.8965,-0.8977,-0.8989,-0.9,-0.9006,-0.9022,-0.9026,-0.9035,-0.905,-0.9057,-0.9076,-0.9079,-0.9099,-0.9099,-0.9096,-0.9096,-0.9108,-0.9107,-0.9142,-0.9147,-0.9118,-0.9118,-0.9118,0,-0.8934,-0.8946,-0.8961,-0.897,-0.8978,-0.8991,-0.9001,-0.9006,-0.9016,-0.9031,-0.904,-0.9055,-0.9068,-0.9092,-0.9101,-0.9115,-0.9115,-0.9127,-0.9118,-0.9117,-0.9117,-0.9116,-0.9118,-0.9129,-0.9129,-0.9129,-0.9129,0,-0.8958,-0.8961,-0.8975,-0.8989,-0.9,-0.9012,-0.9024,-0.9031,-0.9038,-0.9049,-0.9065,-0.9074,-0.9094,-0.9109,-0.9124,-0.9131,-0.9132,-0.9132,-0.9136,-0.9135,-0.9133,-0.9135,-0.9101,-0.9131,-0.9131,-0.9131,-0.9131,-0.9131,-0.8975,-0.8986,-0.8998,-0.9013,-0.9023,-0.9033,-0.9045,-0.9052,-0.9066,-0.9082,-0.9084,-0.9101,-0.9114,-0.9134,-0.9142,-0.9155,-0.9152,-0.9157,-0.9159,-0.916,-0.9161,-0.9131,-0.9158,-0.9158,-0.9158,-0.9158,-0.9158,0,-0.8999,-0.9008,-0.9021,-0.9038,-0.9049,-0.9049,-0.9062,-0.9072,-0.9087,-0.9098,-0.9111,-0.9129,-0.9144,-0.9154,-0.9169,-0.9178,-0.9179,-0.9182,-0.9182,-0.9184,-0.9162,-0.9158,-0.9182,-0.9182,-0.9182,-0.9182,-0.9182,-0.9182,-0.9014,-0.9032,-0.9037,-0.9061,-0.9069,-0.9086,-0.9093,-0.9103,-0.9113,-0.9133,-0.9146,-0.9152,-0.9163,-0.9179,-0.9193,-0.9196,-0.9202,-0.9205,-0.9208,-0.9188,-0.9185,-0.9183,-0.9179,-0.9206,-0.9206,-0.9228,-0.9229,-0.9229]}]]